[[{"header":{"parameterUnit":"m.s-1","parameterCategory":1,"la1":30.2991,"la2":30.254,"lo1":-89.0895,"lo2":-89.0444,"dy":0.0017,"dx":0.0017,"nx":28,"ny":28,"refTime":"2025-12-06T09:00:00:Z","depth":0,"parameterNumber":2,"parameterNumberName":"U-component_of_WINDS"},"data":[0,0,0,0,0,0,0,0,0,0,0,0,0,0,0,0,0,0,0,0,0,0,0,0,0,0,0,0,0,0,0,0,0,0,0,0,0,0,0,0,0,0,0,0,0,0,0,0,0,0,0,0,0,0,0,0,0,0,1.276,1.2762,0,1.2915,1.2917,1.2919,1.2977,1.2976,1.2976,1.2975,1.3139,1.3143,1.3148,0,0,0,0,0,0,0,0,0,0,0,0,0,1.252,1.2525,1.276,1.2762,1.2764,1.2915,1.2917,1.2919,1.2977,1.2976,1.2975,1.2975,1.3137,1.3143,1.3149,0,0,0,0,0,0,0,0,0,0,0,0,0,1.2645,1.2526,1.276,1.2811,1.2817,1.2914,1.2917,1.292,1.2977,1.2976,1.2975,1.2975,1.3135,1.3142,1.3149,1.3209,0,0,1.3171,1.3175,0,0,0,0,0,0,0,0,1.2638,1.2654,1.2801,1.2808,1.2815,1.2926,1.2892,1.3017,1.2977,1.2916,1.2975,1.2974,1.3069,1.3081,1.3112,1.3217,1.3224,1.3172,1.3177,1.318,1.3182,0,0,0,0,0,0,0,1.2629,1.2647,1.2822,1.2804,1.2812,1.2828,1.2845,1.2916,1.2995,1.2922,1.2926,1.2943,1.3072,1.3105,1.3117,1.3226,1.3172,1.3178,1.3183,1.3186,1.3389,1.339,0,0,0,0,0,0,1.2611,1.264,1.2817,1.2826,1.2722,1.2833,1.2852,1.2891,1.2994,1.3009,1.2944,1.2945,1.3093,1.3108,1.3122,1.32,1.318,1.3186,1.319,1.3388,1.3389,1.339,0,0,0,0,0,0,1.2606,1.2626,1.2811,1.2734,1.2759,1.2838,1.2881,1.2894,1.2927,1.3011,1.3026,1.2962,1.3093,1.3112,1.3187,1.3206,1.319,1.3196,1.3387,1.3388,1.339,1.3354,0,0,0,0,0,0,1.2599,1.2624,1.2646,1.2734,1.2763,1.287,1.2882,1.2898,1.2939,1.2942,1.3033,1.3047,1.3094,1.3176,1.3194,1.3216,1.3202,1.3385,1.3387,1.3389,1.3354,1.3354,1.3354,0,0,0,0,0,1.259,1.2631,1.2647,1.2668,1.2792,1.2871,1.2888,1.294,1.294,1.2964,1.3018,1.3044,1.3201,1.3183,1.3204,1.3228,1.3384,1.3387,1.3389,1.3353,1.3354,1.3354,0,0,0,0,0,0,1.2544,1.2643,1.2662,1.2732,1.2793,1.2881,1.2912,1.2938,1.3001,1.3002,1.3066,1.3086,1.3156,1.32,1.3178,1.3292,1.3295,1.3301,1.326,1.3261,1.3262,1.3249,1.3208,0,0,0,0,0,1.2542,1.2596,1.2681,1.2735,1.2764,1.2833,1.2869,1.2904,1.297,1.2997,1.3056,1.3121,1.3185,1.3226,1.329,1.3361,1.3382,1.3388,1.3388,1.3388,1.3393,1.3435,1.3439,1.3398,1.3398,1.3398,0,0,1.2538,1.2599,1.263,1.2727,1.2778,1.2835,1.2854,1.2913,1.2957,1.3006,1.308,1.3126,1.3203,1.3276,1.3311,1.3315,1.3409,1.3391,1.339,1.3396,1.3438,1.3442,1.3445,1.34,1.34,1.3399,0,0,1.256,1.2611,1.2662,1.2713,1.2789,1.2835,1.2847,1.2932,1.2964,1.3038,1.3077,1.3131,1.324,1.3293,1.3334,1.3378,1.3405,1.3397,1.3399,1.3439,1.3442,1.3445,1.3462,1.3466,1.3402,1.3402,1.3402,0,1.2547,1.2632,1.2685,1.2742,1.2785,1.2831,1.2884,1.2931,1.3025,1.3054,1.3057,1.3195,1.325,1.3336,1.3347,1.3379,1.3396,1.3387,1.3437,1.3441,1.3445,1.3461,1.3467,1.3401,1.3401,1.3401,1.3401,0,1.2611,1.267,1.2703,1.279,1.2836,1.2891,1.2955,1.2995,1.3027,1.3073,1.3149,1.3217,1.3295,1.3319,1.3351,1.3411,1.3411,1.3424,1.3428,1.3446,1.3462,1.3469,1.3399,1.3399,1.3399,1.34,0,0,1.2608,1.2725,1.2736,1.2776,1.2865,1.2913,1.2971,1.3046,1.308,1.3144,1.3195,1.3287,1.33,1.3347,1.3385,1.3421,1.3452,1.3431,1.3433,1.3432,1.3524,1.3512,1.3518,1.3471,1.3472,1.3473,1.3517,0,1.2642,1.2745,1.2795,1.2877,1.2933,1.2979,1.3029,1.309,1.3135,1.3191,1.3242,1.3306,1.3319,1.3347,1.3384,1.344,1.3471,1.3438,1.352,1.3522,1.3499,1.3527,1.3515,1.3553,1.3524,1.3525,1.3526,0,1.2695,1.2756,1.2843,1.2926,1.2951,1.2995,1.3069,1.3121,1.3192,1.3223,1.3275,1.3313,1.3378,1.3378,1.3469,1.3445,1.3482,1.3515,1.3518,1.3527,1.3525,1.3537,1.3567,1.3572,1.3537,1.3536,1.3535,0,1.2683,1.2789,1.2854,1.2888,1.2986,1.3016,1.3059,1.3129,1.3171,1.3237,1.3265,1.3338,1.3378,1.3434,1.3491,1.3485,1.3577,1.3581,1.3606,1.3604,1.3623,1.362,1.3658,1.3647,1.3647,1.3647,1.3646,0,1.2715,1.2767,1.285,1.2891,1.295,1.3009,1.3068,1.3114,1.3176,1.3228,1.3273,1.3322,1.3394,1.3452,1.3498,1.3567,1.3585,1.3612,1.3624,1.3608,1.3604,1.3633,1.3632,1.3648,1.3648,1.3647,1.3647,0,1.2712,1.277,1.2845,1.2931,1.2954,1.2995,1.307,1.3112,1.316,1.3225,1.3244,1.332,1.3391,1.3453,1.3547,1.3578,1.3649,1.3663,1.3624,1.363,1.3651,1.3648,1.3708,1.372,1.37,1.37,1.37,0,1.2728,1.2769,1.2859,1.2896,1.2938,1.2997,1.304,1.3101,1.3144,1.3229,1.3261,1.3335,1.3397,1.3508,1.3573,1.3646,1.3662,1.3678,1.3674,1.3657,1.3663,1.3659,1.3664,1.3678,1.3678,1.3678,1.3678,0,1.2751,1.2778,1.2837,1.2907,1.2957,1.3015,1.3075,1.3104,1.3176,1.3223,1.3295,1.3343,1.3439,1.3512,1.3592,1.3639,1.3671,1.3679,1.3688,1.3672,1.3648,1.3662,1.3623,1.3677,1.3677,1.3677,1.3677,1.3677,1.2759,1.2797,1.2866,1.2931,1.2983,1.3038,1.3082,1.3135,1.3195,1.3276,1.3309,1.3383,1.3455,1.3566,1.3613,1.3673,1.3678,1.3692,1.3695,1.3698,1.3695,1.3639,1.3688,1.3688,1.3688,1.3688,1.3688,0,1.2784,1.2831,1.289,1.2972,1.3023,1.3048,1.3116,1.3158,1.3221,1.3285,1.3345,1.3429,1.35,1.3571,1.3647,1.3681,1.3698,1.3699,1.3697,1.3708,1.3686,1.367,1.3685,1.3685,1.3685,1.3685,1.3684,1.3684,1.2802,1.2868,1.2904,1.2997,1.3045,1.3115,1.3152,1.3204,1.3255,1.3346,1.3405,1.345,1.3517,1.3599,1.3666,1.3686,1.3712,1.3709,1.3732,1.371,1.3709,1.3709,1.3694,1.3714,1.3714,1.3749,1.375,1.375]},{"header":{"parameterUnit":"m.s-1","parameterCategory":1,"la1":30.2991,"la2":30.254,"lo1":-89.0895,"lo2":-89.0444,"dy":0.0017,"dx":0.0017,"nx":28,"ny":28,"refTime":"2025-12-06T09:00:00:Z","depth":0,"parameterNumber":3,"parameterNumberName":"V-component_of_WINDS"},"data":[0,0,0,0,0,0,0,0,0,0,0,0,0,0,0,0,0,0,0,0,0,0,0,0,0,0,0,0,0,0,0,0,0,0,0,0,0,0,0,0,0,0,0,0,0,0,0,0,0,0,0,0,0,0,0,0,0,0,-6.1252,-6.1253,0,-6.1338,-6.1338,-6.1339,-6.1253,-6.1249,-6.1246,-6.1243,-6.1323,-6.1328,-6.1333,0,0,0,0,0,0,0,0,0,0,0,0,0,-6.1008,-6.1013,-6.1252,-6.1253,-6.1255,-6.1337,-6.1339,-6.134,-6.1253,-6.1249,-6.1245,-6.1241,-6.1321,-6.1327,-6.1333,0,0,0,0,0,0,0,0,0,0,0,0,0,-6.1106,-6.1015,-6.1252,-6.1222,-6.122,-6.1337,-6.1339,-6.134,-6.1254,-6.1249,-6.1244,-6.1239,-6.1319,-6.1327,-6.1334,-6.1484,0,0,-6.1358,-6.1362,0,0,0,0,0,0,0,0,-6.11,-6.1115,-6.1225,-6.1224,-6.1222,-6.1279,-6.1282,-6.1388,-6.1255,-6.1241,-6.1243,-6.1237,-6.1312,-6.132,-6.1347,-6.1488,-6.1491,-6.1359,-6.1364,-6.1367,-6.137,0,0,0,0,0,0,0,-6.1094,-6.1111,-6.1286,-6.1227,-6.1225,-6.1201,-6.121,-6.1301,-6.1303,-6.1242,-6.1236,-6.1247,-6.131,-6.1339,-6.1348,-6.1492,-6.1359,-6.1366,-6.1371,-6.1374,-6.1761,-6.1766,0,0,0,0,0,0,-6.1091,-6.1106,-6.1283,-6.1288,-6.1148,-6.121,-6.1219,-6.1266,-6.1302,-6.1303,-6.1252,-6.1243,-6.1328,-6.1339,-6.1351,-6.1529,-6.1367,-6.1375,-6.1379,-6.1755,-6.1762,-6.1768,0,0,0,0,0,0,-6.1087,-6.1108,-6.128,-6.1196,-6.1216,-6.122,-6.1273,-6.127,-6.13,-6.131,-6.1309,-6.1282,-6.1325,-6.1339,-6.1452,-6.153,-6.1378,-6.1385,-6.1749,-6.1757,-6.1765,-6.1887,0,0,0,0,0,0,-6.108,-6.1107,-6.1165,-6.1198,-6.1221,-6.1382,-6.1278,-6.1276,-6.1314,-6.1304,-6.1338,-6.1338,-6.1322,-6.1441,-6.146,-6.1539,-6.1392,-6.1742,-6.1753,-6.1762,-6.1876,-6.1898,-6.1917,0,0,0,0,0,-6.1072,-6.1194,-6.1169,-6.1191,-6.1294,-6.1387,-6.14,-6.138,-6.1321,-6.1379,-6.1385,-6.1337,-6.1519,-6.1453,-6.1474,-6.1556,-6.1737,-6.1749,-6.1762,-6.1866,-6.1894,-6.1917,0,0,0,0,0,0,-6.1168,-6.1198,-6.117,-6.1307,-6.1346,-6.1372,-6.1444,-6.141,-6.1464,-6.1451,-6.1423,-6.1431,-6.1551,-6.1564,-6.1491,-6.1703,-6.1618,-6.1635,-6.169,-6.1716,-6.1737,-6.1731,-6.1398,0,0,0,0,0,-6.1206,-6.1281,-6.1302,-6.1421,-6.1442,-6.1441,-6.148,-6.1462,-6.15,-6.1515,-6.1529,-6.1566,-6.1631,-6.1674,-6.1734,-6.1877,-6.1883,-6.1944,-6.1965,-6.1982,-6.1997,-6.2074,-6.2101,-6.1809,-6.1809,-6.1809,0,0,-6.1284,-6.1309,-6.1358,-6.1441,-6.1469,-6.1546,-6.1455,-6.1539,-6.1596,-6.1526,-6.1635,-6.1647,-6.1685,-6.1815,-6.1872,-6.1829,-6.2079,-6.1998,-6.2011,-6.2017,-6.209,-6.2117,-6.2142,-6.1817,-6.1816,-6.1814,0,0,-6.1465,-6.1492,-6.1595,-6.1626,-6.167,-6.1668,-6.1693,-6.1725,-6.1732,-6.1841,-6.1791,-6.1856,-6.1969,-6.1999,-6.2029,-6.2223,-6.2181,-6.2243,-6.2352,-6.2428,-6.2451,-6.2471,-6.2541,-6.2566,-6.2258,-6.2259,-6.2259,0,-6.1556,-6.1672,-6.1652,-6.1742,-6.178,-6.1724,-6.1827,-6.1856,-6.1917,-6.1943,-6.1895,-6.2037,-6.2058,-6.2194,-6.2242,-6.2268,-6.2294,-6.224,-6.2449,-6.247,-6.2488,-6.2554,-6.2581,-6.2266,-6.2265,-6.2264,-6.2264,0,-6.1782,-6.1863,-6.194,-6.2004,-6.205,-6.2146,-6.2139,-6.2188,-6.2166,-6.2169,-6.228,-6.2305,-6.237,-6.24,-6.2378,-6.2533,-6.2505,-6.2454,-6.2368,-6.2524,-6.2586,-6.2611,-6.2277,-6.2274,-6.2272,-6.227,0,0,-6.2026,-6.2079,-6.2107,-6.2136,-6.2181,-6.2243,-6.2335,-6.2402,-6.2445,-6.2488,-6.2565,-6.2662,-6.2616,-6.265,-6.2631,-6.2697,-6.285,-6.2637,-6.2638,-6.2677,-6.3023,-6.3062,-6.3092,-6.2823,-6.2827,-6.2831,-6.302,0,-6.2209,-6.2374,-6.2359,-6.2514,-6.2589,-6.2537,-6.2618,-6.2653,-6.2659,-6.2721,-6.2725,-6.2796,-6.2728,-6.2749,-6.2812,-6.2819,-6.292,-6.2804,-6.2892,-6.2896,-6.2886,-6.3124,-6.3165,-6.3342,-6.3044,-6.3048,-6.3051,0,-6.2445,-6.2501,-6.2665,-6.27,-6.2731,-6.2804,-6.2864,-6.2925,-6.2964,-6.2963,-6.3003,-6.2972,-6.3064,-6.2976,-6.3101,-6.3024,-6.3058,-6.3067,-6.3073,-6.3081,-6.2983,-6.3138,-6.3397,-6.3424,-6.3088,-6.3085,-6.3083,0,-6.2608,-6.2724,-6.2837,-6.2863,-6.2907,-6.296,-6.298,-6.3014,-6.3055,-6.3106,-6.3133,-6.3193,-6.3226,-6.3273,-6.326,-6.3197,-6.3388,-6.3299,-6.3389,-6.339,-6.3432,-6.343,-6.3701,-6.3454,-6.3453,-6.3453,-6.3452,0,-6.2815,-6.2917,-6.2911,-6.2981,-6.3094,-6.3075,-6.3186,-6.3199,-6.323,-6.33,-6.3257,-6.3323,-6.3302,-6.3366,-6.3355,-6.3461,-6.3476,-6.3477,-6.3473,-6.3481,-6.3482,-6.3504,-6.3492,-6.346,-6.3458,-6.3457,-6.3456,0,-6.3016,-6.3016,-6.3137,-6.3169,-6.318,-6.3262,-6.3288,-6.3353,-6.3355,-6.3444,-6.3464,-6.3467,-6.3541,-6.3532,-6.3613,-6.3606,-6.3738,-6.3719,-6.3726,-6.3722,-6.3813,-6.3805,-6.4109,-6.4148,-6.3875,-6.3878,-6.388,0,-6.3149,-6.3227,-6.3269,-6.3315,-6.3339,-6.3412,-6.3455,-6.3439,-6.3485,-6.3536,-6.3594,-6.3665,-6.372,-6.384,-6.3848,-6.391,-6.3893,-6.3995,-6.3901,-6.3908,-6.3895,-6.3891,-6.3899,-6.4013,-6.4016,-6.4019,-6.4021,0,-6.3384,-6.3381,-6.3446,-6.3512,-6.3565,-6.3615,-6.366,-6.3699,-6.3687,-6.374,-6.3817,-6.3861,-6.3945,-6.4015,-6.4075,-6.4092,-6.4055,-6.405,-6.4075,-6.4084,-6.4086,-6.4087,-6.3777,-6.4043,-6.4041,-6.404,-6.4038,-6.4037,-6.3555,-6.3623,-6.3664,-6.3738,-6.3771,-6.3815,-6.3878,-6.389,-6.3954,-6.4024,-6.401,-6.4096,-6.4132,-6.4208,-6.4233,-6.4298,-6.4261,-6.4296,-6.4305,-6.4314,-6.4325,-6.4075,-6.4309,-6.4308,-6.4307,-6.4307,-6.4306,0,-6.3789,-6.3814,-6.3882,-6.3949,-6.4007,-6.397,-6.4018,-6.4068,-6.4146,-6.4184,-6.4241,-6.4329,-6.4397,-6.4411,-6.4476,-6.4526,-6.4511,-6.4544,-6.454,-6.4545,-6.4354,-6.4328,-6.4555,-6.4555,-6.4555,-6.4555,-6.4555,-6.4555,-6.3918,-6.4031,-6.4033,-6.4161,-6.4184,-6.4271,-6.4302,-6.4341,-6.4372,-6.4474,-6.4532,-6.4541,-6.457,-6.4637,-6.4697,-6.4699,-6.4725,-6.4766,-6.4761,-6.4583,-6.4558,-6.4534,-6.4509,-6.4771,-6.4771,-6.4946,-6.4947,-6.4949]}]]